Location: Trenton
(45.6167°N, 62.6167°W)
Time: 06:08:39
(UTC+00:00)

Nauka - Pass Details

Date: 04 October 2021
Orbit: 417 x 423 km, 51.6° (Epoch: 26 October)

Event Time Altitude Azimuth Distance (km) Brightness Sun altitude
Rises 22:10:38 0° 298° (WNW) 2,366 ? -5.4°
Reaches altitude 10° 22:12:44 10° 299° (WNW) 1,500 ? -5.8°
Maximum altitude 22:16:06 83° 25° (NNE) 427 ? -6.4°
Drops below altitude 10° 22:19:28 10° 117° (ESE) 1,496 ? -6.9°
Enters shadow 22:20:03 - 117° (ESE) 1,736 ? -7.0°
